Location: Betpouey
(42.8833°N, 0.0333°E)
Time: 22:24:23
(UTC+00:00)

USA 81 - Pass Details

Date: 01 December 2020
Orbit: 783 x 791 km, 85.0° (Epoch: 30 November)

Event Time Altitude Azimuth Distance (km) Brightness Sun altitude
Rises 17:24:56 0° 356° (N) 3,288 7.1 -10.5°
Reaches altitude 10° 17:27:18 10° 358° (N) 2,357 6.4 -10.9°
Maximum altitude 17:32:36 79° 84° (E) 808 4.0 -11.8°
Drops below altitude 10° 17:37:52 10° 172° (S) 2,345 6.6 -12.8°
Sets 17:40:13 0° 174° (S) 3,270 7.4 -13.2°
